Terminal Aerodrome Forecast
Issued by NWS Salt Lake City, UT

Home | Current Version | Previous Version | Text Only | Print | Product List | Glossary On
Versions: 1 2 3 4 5 6 7 8 9 10 11 12 13 14 15 16 17 18 19 20 21 22 23 24 25 26 27 28 29 30 31 32 33 34 35 36 37 38 39 40 41 42 43 44 45 46 47 48 49 50
000
FTUS45 KSLC 182333
TAFSLC
TAF
KSLC 182333Z 1900/2006 33005KT P6SM SCT050 SCT090
     FM190300 15005KT P6SM SCT080 SCT120
     FM192100 24005KT P6SM SCT080 SCT120=

USA.gov is the U.S. government's official web portal to all federal, state and local government web resources and services.